Weather History for Buffalo, WY

Change the Weather History Date:

Saturday, February 9, 2013

  Actual Average Record
Temperature  
Mean Temperature 29 °F 27 °F  
Max Temperature 33 °F 37 °F 57 °F (1999)
Min Temperature 25 °F 18 °F -8 °F (2011)
Degree Days  
Heating Degree Days 36 38  
Month to date heating degree days 309 342  
Since 1 July heating degree days 4187 4549  
Cooling Degree Days 0 0  
Month to date cooling degree days 0 0  
Year to date cooling degree days 0 0  
Moisture  
Dew Point 22 °F    
Average Humidity 75    
Maximum Humidity 92    
Minimum Humidity 58    
Precipitation  
Precipitation 0.02 in 0.02 in 0.18 in (2002)
Month to date precipitation 0.03 0.12  
Year to date precipitation 0.51 0.54  
Sea Level Pressure  
Sea Level Pressure 29.79 in    
Wind  
Wind Speed 10 mph (NW)    
Max Wind Speed 24 mph    
Max Gust Speed 31 mph    
Visibility 5 miles    
Events Snow    
T = Trace of Precipitation, MM = Missing Value Source: NWS Daily Summary

Daily Weather History Graph

Daily Weather History Graph

Search for Another Location

Airport:

Trip Planner

Search our weather history database for the weather conditions in past years. The results will help you decide how hot, cold, wet, or windy it might be!

Date:

Astronomy

Feb. 09, 2013 Rise Set
Actual Time 7:14 AM MST 5:28 PM MST
Civil Twilight 6:44 AM MST 5:58 PM MST
Nautical Twilight 6:10 AM MST 6:32 PM MST
Astronomical Twilight 5:36 AM MST 7:06 PM MST
Moon 6:27 AM MST (2/9) 5:15 PM MST (2/9)
Length of Visible Light 11h 13m
Length of Day
10h 13m
Waning Crescent, 0% of the Moon is Illuminated
Feb 9
Waning Crescent
Feb 10
New
Feb 17
First Quarter
Feb 25
Full
Mar 4
Last Quarter

Hourly Weather History & Observations

Time (MST) Temp. Windchill Dew Point Humidity Pressure Visibility Wind Dir Wind Speed Gust Speed Precip Events Conditions
12:53 AM 28.9 °F 21.9 °F 16.0 °F 58% 29.86 in 10.0 mi NW 6.9 mph - N/A   Overcast
1:53 AM 28.9 °F 19.2 °F 17.1 °F 61% 29.85 in 10.0 mi NW 11.5 mph - N/A   Overcast
2:53 AM 30.0 °F 26.5 °F 17.1 °F 59% 29.86 in 10.0 mi WNW 3.5 mph - N/A   Overcast
3:53 AM 28.0 °F 22.8 °F 18.0 °F 66% 29.86 in 10.0 mi NNW 4.6 mph - N/A   Overcast
4:53 AM 27.0 °F 20.5 °F 19.9 °F 75% 29.87 in 5.0 mi NW 5.8 mph - 0.00 in Snow Light Snow
5:13 AM 26.6 °F 22.6 °F 21.2 °F 80% 29.80 in 2.0 mi WNW 3.5 mph - 0.00 in Snow Light Snow
5:21 AM 26.6 °F 21.2 °F 23.0 °F 86% 29.80 in 1.5 mi WNW 4.6 mph - 0.00 in Snow Light Snow
5:53 AM 27.0 °F - 23.0 °F 85% 29.87 in 1.5 mi Calm Calm - 0.00 in Snow Light Snow
6:22 AM 26.6 °F 21.2 °F 24.8 °F 93% 29.81 in 2.0 mi West 4.6 mph - 0.01 in Snow Light Snow
6:39 AM 26.6 °F 20.0 °F 24.8 °F 93% 29.81 in 3.0 mi West 5.8 mph - 0.01 in Snow Light Snow
6:53 AM 27.0 °F 19.5 °F 24.1 °F 89% 29.88 in 4.0 mi West 6.9 mph - 0.01 in Snow Light Snow
7:53 AM 28.0 °F 18.6 °F 24.1 °F 85% 29.87 in 10.0 mi WNW 10.4 mph - 0.00 in   Overcast
8:53 AM 30.0 °F 21.7 °F 23.0 °F 75% 29.86 in 10.0 mi WNW 9.2 mph - N/A   Overcast
9:43 AM 30.2 °F 24.3 °F 23.0 °F 75% 29.79 in 2.5 mi NW 5.8 mph - 0.00 in Snow Light Snow
9:53 AM 30.0 °F 23.2 °F 23.0 °F 75% 29.86 in 1.5 mi NW 6.9 mph - 0.00 in Snow Light Snow
10:17 AM 30.2 °F 21.9 °F 24.8 °F 80% 29.79 in 2.0 mi WNW 9.2 mph - 0.00 in Snow Light Snow
10:26 AM 30.2 °F 21.9 °F 24.8 °F 80% 29.79 in 5.0 mi WNW 9.2 mph - 0.00 in Snow Light Snow
10:53 AM 30.0 °F 20.5 °F 25.0 °F 82% 29.85 in 10.0 mi WNW 11.5 mph - 0.00 in   Overcast
11:53 AM 33.1 °F 25.5 °F 21.9 °F 64% 29.81 in 10.0 mi WNW 9.2 mph - N/A   Overcast
12:53 PM 32.0 °F 25.6 °F 24.1 °F 73% 29.79 in 10.0 mi NNW 6.9 mph - N/A   Overcast
1:53 PM 32.0 °F 24.8 °F 24.1 °F 73% 29.77 in 10.0 mi North 8.1 mph - N/A   Overcast
2:53 PM 30.9 °F 21.7 °F 21.9 °F 69% 29.76 in 10.0 mi North 11.5 mph - N/A   Overcast
3:53 PM 30.0 °F 20.5 °F 23.0 °F 75% 29.77 in 10.0 mi NNW 11.5 mph - N/A   Overcast
4:53 PM 28.9 °F 20.4 °F 21.9 °F 75% 29.78 in 10.0 mi North 9.2 mph - N/A   Overcast
5:53 PM 28.0 °F 20.0 °F 21.0 °F 75% 29.79 in 10.0 mi NNW 8.1 mph - N/A   Overcast
6:53 PM 28.0 °F 19.3 °F 21.0 °F 75% 29.81 in 10.0 mi NNW 9.2 mph - N/A   Overcast
7:53 PM 27.0 °F 15.2 °F 21.0 °F 78% 29.81 in 6.0 mi North 15.0 mph 24.2 mph 0.00 in Snow Light Snow
8:18 PM 26.6 °F 13.8 °F 23.0 °F 86% 29.74 in 2.0 mi NNW 17.3 mph 24.2 mph 0.00 in Snow Light Snow
8:27 PM 26.6 °F 14.7 °F 23.0 °F 86% 29.74 in 1.8 mi NNW 15.0 mph 26.5 mph 0.00 in Snow Light Snow
8:44 PM 26.6 °F 15.2 °F 23.0 °F 86% 29.74 in 2.0 mi NNW 13.8 mph 26.5 mph 0.00 in Snow Light Snow
8:53 PM 26.1 °F 14.0 °F 23.0 °F 88% 29.83 in 2.0 mi NNW 15.0 mph 25.3 mph 0.00 in Snow Light Snow
9:05 PM 26.6 °F 14.7 °F 23.0 °F 86% 29.75 in 1.8 mi NNW 15.0 mph 25.3 mph 0.00 in Snow Light Snow
9:21 PM 26.6 °F 14.7 °F 23.0 °F 86% 29.75 in 1.0 mi NNW 15.0 mph 25.3 mph 0.00 in Snow Light Snow
9:48 PM 26.6 °F 14.3 °F 23.0 °F 86% 29.75 in 1.5 mi NW 16.1 mph 23.0 mph 0.00 in Snow Light Snow
9:53 PM 26.1 °F 14.0 °F 23.0 °F 88% 29.83 in 1.5 mi NW 15.0 mph - 0.00 in Snow Light Snow
10:00 PM 26.6 °F 15.7 °F 23.0 °F 86% 29.75 in 2.0 mi NW 12.7 mph - 0.00 in Snow Light Snow
10:32 PM 26.6 °F 15.2 °F 21.2 °F 80% 29.74 in 2.0 mi NW 13.8 mph - 0.00 in Snow Light Snow
10:43 PM 26.6 °F 15.7 °F 23.0 °F 86% 29.74 in 1.8 mi NNW 12.7 mph 24.2 mph 0.00 in Snow Light Snow
10:49 PM 26.6 °F 13.8 °F 23.0 °F 86% 29.74 in 2.5 mi NNW 17.3 mph 25.3 mph 0.00 in Snow Light Snow
10:50 PM 26.1 °F 13.1 °F 23.0 °F 88% 29.82 in 2.5 mi NNW 17.3 mph 25.3 mph 0.00 in Snow Light Snow
10:58 PM 26.6 °F 16.2 °F 23.0 °F 86% 29.74 in 3.0 mi NNW 11.5 mph 25.3 mph 0.00 in Snow Light Snow
11:11 PM 26.6 °F 15.7 °F 23.0 °F 86% 29.74 in 2.0 mi North 12.7 mph 23.0 mph 0.00 in Snow Light Snow
11:13 PM 26.6 °F 14.3 °F 23.0 °F 86% 29.74 in 1.5 mi North 16.1 mph 24.2 mph 0.00 in Snow Light Snow
11:16 PM 26.6 °F 13.1 °F 23.0 °F 86% 29.74 in 1.0 mi North 19.6 mph 24.2 mph 0.00 in Snow Light Snow
11:31 PM 24.8 °F 10.0 °F 23.0 °F 93% 29.74 in 2.0 mi North 21.9 mph - 0.00 in Snow Light Snow
11:49 PM 24.8 °F 9.3 °F 23.0 °F 93% 29.75 in 1.8 mi NNW 24.2 mph 31.1 mph 0.00 in Snow Light Snow
11:53 PM 26.1 °F 11.3 °F 21.9 °F 84% 29.82 in 1.8 mi NNW 23.0 mph 31.1 mph 0.01 in Snow Light Snow
11:55 PM 24.8 °F 10.3 °F 21.2 °F 86% 29.75 in 2.0 mi NNW 20.7 mph 31.1 mph 0.00 in Snow Light Snow